Location: Nairn
(57.5833°N, 3.8667°W)
Time: 23:05:36
(UTC+00:00)

N. Korean satellite - Pass Details

Date: 01 November 2020
Orbit: 453 x 503 km, 97.2° (Epoch: 04 December)

Event Time Altitude Azimuth Distance (km) Brightness Sun altitude
Rises 06:17:09 0° 13° (NNE) 2,489 10.2 -9.9°
Reaches altitude 10° 06:19:12 10° 12° (NNE) 1,607 9.2 -9.6°
Maximum altitude 06:22:37 73° 288° (WNW) 482 6.3 -9.2°
Drops below altitude 10° 06:26:02 10° 203° (SSW) 1,594 9.1 -8.7°
Sets 06:28:03 0° 201° (SSW) 2,466 10.1 -8.5°
